Location: Arrington
(35.8681°N, 86.7092°W)
Time: 07:19:39
(UTC+00:00)

USA 238 DEB - Pass Details

Date: 23 November 2019
Orbit: 1024 x 1188 km, 63.4° (Epoch: 29 November)

Event Time Altitude Azimuth Distance (km) Brightness Sun altitude
Rises 00:36:33 0° 333° (NNW) 3,957 6.9 -24.2°
Reaches altitude 10° 00:39:20 10° 339° (NNW) 3,019 6.2 -24.8°
Enters shadow 00:46:05 48° 47° (NE) 1,478 4.0 -26.2°
